• In Uzbekistan
  • List of Countries
  • For 7 days
  • Water Temperature
  • Satellite Maps
  • Weather Map
  • Weather Widgets
  • user-avatar
    Login

    Hourly Weather Cerqueira Cesar

    Today, 25 June, Monday

    Time Temperature Precipitation Wind Pressure Humidity
    00:00 +20°C° 0 mm 1 mps 700 mmHg 73%
    01:00 +19°C° 0 mm 1 mps 700 mmHg 75%
    02:00 +19°C° 0 mm 1 mps 700 mmHg 76%
    03:00 +19°C° 0 mm 1 mps 700 mmHg 81%
    04:00 +19°C° 0 mm 1 mps 700 mmHg 82%
    05:00 +18°C° 0 mm 1 mps 700 mmHg 83%
    06:00 +18°C° 0 mm 1 mps 700 mmHg 84%
    07:00 +18°C° 0 mm 2 mps 700 mmHg 81%
    08:00 +19°C° 0 mm 2 mps 701 mmHg 78%
    09:00 +21°C° 0 mm 2 mps 701 mmHg 75%
    10:00 +23°C° 0 mm 2 mps 701 mmHg 68%
    11:00 +25°C° 0 mm 3 mps 701 mmHg 61%
    12:00 +27°C° 0 mm 3 mps 701 mmHg 54%
    13:00 +27°C° 0 mm 3 mps 701 mmHg 51%
    14:00 +27°C° 0 mm 4 mps 701 mmHg 49%
    15:00 +28°C° 0 mm 4 mps 700 mmHg 47%
    16:00 +26°C° 0 mm 3 mps 700 mmHg 53%
    17:00 +24°C° 0 mm 2 mps 699 mmHg 59%
    18:00 +21°C° 0 mm 2 mps 699 mmHg 65%
    19:00 +21°C° 0 mm 2 mps 699 mmHg 66%
    20:00 +20°C° 0 mm 2 mps 699 mmHg 67%
    21:00 +19°C° 0 mm 2 mps 700 mmHg 68%
    22:00 +20°C° 0 mm 1 mps 700 mmHg 69%
    23:00 +19°C° 0 mm 1 mps 700 mmHg 69%

    Tomorrow, 26 June, Tuesday

    Time Temperature Precipitation Wind Pressure Humidity
    00:00 +19°C° 0 mm 1 mps 700 mmHg 70%
    01:00 +19°C° 0 mm 1 mps 700 mmHg 71%
    02:00 +18°C° 0 mm 1 mps 700 mmHg 71%
    03:00 +18°C° 0 mm 1 mps 699 mmHg 72%
    04:00 +18°C° 0 mm 1 mps 699 mmHg 72%
    05:00 +18°C° 0 mm 1 mps 699 mmHg 73%
    06:00 +16°C° 0 mm 2 mps 699 mmHg 74%
    07:00 +18°C° 0 mm 2 mps 700 mmHg 71%
    08:00 +19°C° 0 mm 2 mps 700 mmHg 68%
    09:00 +20°C° 0 mm 2 mps 701 mmHg 66%
    10:00 +23°C° 0 mm 2 mps 701 mmHg 60%
    11:00 +25°C° 0 mm 3 mps 701 mmHg 54%
    12:00 +27°C° 0 mm 3 mps 701 mmHg 48%
    13:00 +27°C° 0 mm 3 mps 700 mmHg 48%
    14:00 +27°C° 0 mm 3 mps 700 mmHg 48%
    15:00 +27°C° 0 mm 2 mps 699 mmHg 47%
    16:00 +26°C° 0 mm 2 mps 699 mmHg 53%
    17:00 +24°C° 0 mm 1 mps 699 mmHg 58%
    18:00 +22°C° 0 mm 1 mps 699 mmHg 64%
    19:00 +21°C° 0 mm 1 mps 699 mmHg 65%
    20:00 +21°C° 0 mm 1 mps 700 mmHg 67%
    21:00 +20°C° 0 mm 1 mps 700 mmHg 68%
    22:00 +20°C° 0 mm 1 mps 700 mmHg 69%
    23:00 +19°C° 0 mm 1 mps 700 mmHg 69%

    Day after tomorrow, 27 June, Wednesday

    Time Temperature Precipitation Wind Pressure Humidity
    00:00 +19°C° 0 mm 1 mps 700 mmHg 70%
    01:00 +19°C° 0 mm 1 mps 700 mmHg 71%
    02:00 +18°C° 0 mm 1 mps 700 mmHg 73%
    03:00 +17°C° 0 mm 2 mps 700 mmHg 74%
    04:00 +17°C° 0 mm 2 mps 700 mmHg 75%
    05:00 +16°C° 0 mm 2 mps 700 mmHg 76%
    06:00 +16°C° 0 mm 2 mps 700 mmHg 77%
    07:00 +17°C° 0 mm 2 mps 700 mmHg 74%
    08:00 +19°C° 0 mm 2 mps 701 mmHg 71%
    09:00 +20°C° 0 mm 2 mps 702 mmHg 67%
    10:00 +23°C° 0 mm 2 mps 702 mmHg 62%
    11:00 +24°C° 0 mm 2 mps 702 mmHg 57%
    12:00 +26°C° 0 mm 2 mps 702 mmHg 52%
    13:00 +27°C° 0 mm 2 mps 702 mmHg 51%
    14:00 +27°C° 0 mm 2 mps 701 mmHg 50%
    15:00 +27°C° 0 mm 2 mps 701 mmHg 49%
    16:00 +25°C° 0 mm 2 mps 701 mmHg 55%
    17:00 +24°C° 0 mm 1 mps 701 mmHg 60%
    18:00 +22°C° 0 mm 1 mps 700 mmHg 66%
    19:00 +21°C° 0 mm 1 mps 701 mmHg 68%
    20:00 +21°C° 0 mm 1 mps 701 mmHg 69%
    21:00 +20°C° 0 mm 1 mps 701 mmHg 71%
    22:00 +20°C° 0 mm 1 mps 702 mmHg 72%
    23:00 +20°C° 0 mm 1 mps 702 mmHg 73%

    28 June, Thursday

    Time Temperature Precipitation Wind Pressure Humidity
    00:00 +19°C° 0 mm 1 mps 702 mmHg 74%
    01:00 +18°C° 0 mm 2 mps 701 mmHg 75%
    02:00 +18°C° 0 mm 2 mps 701 mmHg 76%
    03:00 +18°C° 0 mm 2 mps 701 mmHg 77%
    04:00 +18°C° 0 mm 2 mps 701 mmHg 77%
    05:00 +17°C° 0 mm 2 mps 701 mmHg 77%
    06:00 +17°C° 0 mm 2 mps 701 mmHg 78%
    07:00 +18°C° 0 mm 2 mps 702 mmHg 76%
    08:00 +19°C° 0 mm 2 mps 702 mmHg 73%
    09:00 +20°C° 0 mm 2 mps 703 mmHg 71%
    10:00 +21°C° 0 mm 2 mps 703 mmHg 66%
    11:00 +24°C° 0 mm 2 mps 703 mmHg 61%
    12:00 +25°C° 0 mm 2 mps 703 mmHg 57%
    13:00 +26°C° 0 mm 2 mps 702 mmHg 55%
    14:00 +26°C° 0 mm 2 mps 702 mmHg 53%
    15:00 +27°C° 0 mm 1 mps 701 mmHg 51%
    16:00 +25°C° 0 mm 1 mps 701 mmHg 57%
    17:00 +23°C° 0 mm 1 mps 701 mmHg 63%
    18:00 +22°C° 0 mm 1 mps 701 mmHg 69%
    19:00 +20°C° 0 mm 2 mps 701 mmHg 71%
    20:00 +19°C° 0 mm 2 mps 701 mmHg 74%
    21:00 +18°C° 0 mm 2 mps 702 mmHg 77%
    22:00 +18°C° 0 mm 2 mps 702 mmHg 79%
    23:00 +17°C° 0 mm 2 mps 702 mmHg 81%

    29 June, Friday

    Time Temperature Precipitation Wind Pressure Humidity
    00:00 +17°C° 0 mm 2 mps 702 mmHg 83%
    01:00 +17°C° 0 mm 2 mps 701 mmHg 85%
    02:00 +16°C° 0 mm 2 mps 701 mmHg 87%
    03:00 +16°C° 0 mm 2 mps 701 mmHg 89%
    04:00 +16°C° 0 mm 2 mps 701 mmHg 89%
    05:00 +16°C° 0 mm 2 mps 701 mmHg 90%
    06:00 +15°C° 0 mm 2 mps 701 mmHg 90%
    07:00 +17°C° 0 mm 2 mps 701 mmHg 84%
    08:00 +18°C° 0 mm 3 mps 702 mmHg 78%
    09:00 +19°C° 0 mm 3 mps 703 mmHg 72%
    10:00 +21°C° 0 mm 3 mps 702 mmHg 66%
    11:00 +24°C° 0 mm 3 mps 702 mmHg 60%
    12:00 +26°C° 0 mm 3 mps 702 mmHg 54%
    13:00 +26°C° 0 mm 3 mps 702 mmHg 53%
    14:00 +26°C° 0 mm 2 mps 701 mmHg 51%
    15:00 +27°C° 0 mm 2 mps 701 mmHg 50%
    16:00 +25°C° 0 mm 2 mps 701 mmHg 56%
    17:00 +23°C° 0 mm 1 mps 701 mmHg 61%
    18:00 +22°C° 0 mm 1 mps 700 mmHg 67%
    19:00 +21°C° 0 mm 1 mps 701 mmHg 69%
    20:00 +20°C° 0 mm 1 mps 701 mmHg 71%
    21:00 +20°C° 0 mm 1 mps 701 mmHg 73%
    22:00 +19°C° 0 mm 1 mps 701 mmHg 74%
    23:00 +19°C° 0 mm 1 mps 701 mmHg 75%

    30 June, Saturday

    Time Temperature Precipitation Wind Pressure Humidity
    00:00 +18°C° 0 mm 1 mps 701 mmHg 77%
    01:00 +18°C° 0 mm 1 mps 700 mmHg 78%
    02:00 +18°C° 0 mm 1 mps 700 mmHg 79%
    03:00 +16°C° 0 mm 1 mps 700 mmHg 80%
    04:00 +16°C° 0 mm 1 mps 700 mmHg 81%
    05:00 +16°C° 0 mm 1 mps 700 mmHg 82%
    06:00 +16°C° 0 mm 2 mps 700 mmHg 83%
    07:00 +17°C° 0 mm 2 mps 700 mmHg 79%
    08:00 +18°C° 0 mm 2 mps 701 mmHg 74%
    09:00 +20°C° 0 mm 2 mps 701 mmHg 70%
    10:00 +21°C° 0 mm 2 mps 701 mmHg 64%
    11:00 +24°C° 0 mm 2 mps 701 mmHg 58%
    12:00 +26°C° 0 mm 3 mps 701 mmHg 52%
    13:00 +26°C° 0 mm 2 mps 701 mmHg 50%
    14:00 +27°C° 0 mm 2 mps 700 mmHg 49%
    15:00 +27°C° 0 mm 2 mps 700 mmHg 48%
    16:00 +25°C° 0 mm 2 mps 700 mmHg 54%
    17:00 +23°C° 0 mm 1 mps 699 mmHg 60%
    18:00 +22°C° 0 mm 1 mps 699 mmHg 65%
    19:00 +21°C° 0 mm 1 mps 699 mmHg 68%
    20:00 +20°C° 0 mm 1 mps 700 mmHg 70%
    21:00 +20°C° 0 mm 1 mps 700 mmHg 72%
    22:00 +19°C° 0 mm 1 mps 700 mmHg 74%
    23:00 +19°C° 0 mm 1 mps 700 mmHg 75%
    Show more